Regional Weather Roundup
Issued by NWS State College, PA

Home | Current Version | Previous Version | Text Only | Print | Product List | Glossary On
Versions: 1 2 3 4 5 6 7 8 9 10 11 12 13 14 15 16 17 18 19 20 21 22 23 24 25 26 27 28 29 30 31 32 33 34 35 36 37 38 39 40 41 42 43 44 45 46 47 48 49 50
000
ASUS41 KCTP 242110
RWRCTP

REGIONAL WEATHER ROUNDUP
NATIONAL WEATHER SERVICE STATE COLLEGE PA
500 PM EDT THU APR 24 2014

Note: "fair" indicates few or no clouds below 12,000 feet with no
significant weather and/or obstructions to visibility.

* = STATION THAT DOES NOT REPORT PRECIPITATION /E.G. RAIN...SNOW...ETC/
    THUNDER OR FOG.

PAZ002>004-007>009-013>016-020>023-029>032-242200-
WESTERN PENNSYLVANIA

CITY           SKY/WX    TMP DP  RH WIND       PRES   REMARKS
ERIE           SUNNY     51  11  20 NE14      30.07F
MEADVILLE      NOT AVBL
FRANKLIN*      SUNNY     57  18  21 E6        30.04S
NEW CASTLE     FAIR      57  19  23 VRB7      30.03F
BEAVER COUNTY  SUNNY     57  21  24 S3        30.01F
BUTLER*        SUNNY     55  18  22 NE3       30.03F
PITTSBURGH INT PTSUNNY   59  16  18 CALM      30.01F
PITTSBURGH     SUNNY     60  16  18 CALM      30.00F
INDIANA*       SUNNY     57  18  21 CALM      30.02F
LATROBE        SUNNY     57  21  24 NE12      30.03F
WASHINGTON CO* SUNNY     59  23  25 E3        30.03F
$$

PAZ004>006-010>012-017>019-024>028-033>037-041-042-045-046-049>053-242200-
CENTRAL PENNSYLVANIA

CITY           SKY/WX    TMP DP  RH WIND       PRES   REMARKS
BRADFORD       SUNNY     54  11  18 NE10      30.01F
DUBOIS         SUNNY     57  12  17 NW8       30.00F
CLEARFIELD     SUNNY     60  10  14 VRB5      29.99F
JOHNSTOWN      SUNNY     54  17  23 N7        30.00F
ALTOONA        SUNNY     59  19  21 VRB6      30.01F
STATE COLLEGE  SUNNY     63  10  13 N6        29.99S
WILLIAMSPORT   SUNNY     61  14  16 N10G18    29.98F
SELINSGROVE    SUNNY     62  13  14 MISG      29.99S
FT INDIANTOWN  SUNNY     63  13  14 VRB7G20   29.98S
CAPITAL CITY   SUNNY     63  14  15 N9        29.98F
HARRISBURG     MOSUNNY   66  23  19 W9        29.97F
YORK           SUNNY     62  20  19 W9        29.99F
$$

PAZ038>040-043-044-047-048-054-055-060>062-067>071-242200-
EASTERN PENNSYLVANIA

CITY           SKY/WX    TMP DP  RH WIND       PRES   REMARKS
SCRANTON       SUNNY     56  12  17 N18       29.97F
MOUNT POCONO   SUNNY     51  12  21 N15G26    29.94S
ALLENTOWN      SUNNY     60  12  15 N23G31    29.95F
QUAKERTOWN*    SUNNY     59  16  18 N13G18    29.95S
READING        SUNNY     62  19  19 NW17      29.96F
LANCASTER      SUNNY     61  19  19 NW12      29.97F
COATESVILLE    NOT AVBL
POTTSTOWN      SUNNY     61  18  18 NW12      29.96F
BLUE BELL      SUNNY     63  12  14 NW9G18    29.94S
DOYLESTOWN     SUNNY     59  13  16 NW17G26   29.93S
WILLOW GROVE   NOT AVBL
NORTH PHILA    SUNNY     65  13  13 NW15G23   29.95F
PHILADELPHIA   MOSUNNY   64  12  13 NW14G23   29.96S
$$



USA.gov is the U.S. government's official web portal to all federal, state and local government web resources and services.